Tracking 29777 objects as of 4-Oct-2024
HD Live streaming from Space Station
objects crossing your sky now

SUPERBIRD A

Track SUPERBIRD A now!
SUPERBIRD A is classified as:


NORAD ID: 20040
Int'l Code: 1989-041A
Perigee: 35,914.9 km
Apogee: 35,968.8 km
Inclination: 12.9 °
Period: 1,443.7 minutes
Semi major axis: 42312 km
RCS: 4.409 m2 (large)
Launch date: June 5, 1989
Source: Japan (JPN)
Launch site: FRENCH GUIANA (FRGUI)
Your satellite tracking list
Your tracking list is empty




NASA's NSSDC Master Catalog

Two Line Element Set (TLE):
1 20040U 89041A   24277.09478432 -.00000205  00000-0  00000-0 0  9995
2 20040  12.8990 336.6131 0006371 167.3418 187.6207  0.99745783128258
Source of the keplerian elements: AFSPC